Weather Roundup
Issued by NWS Chicago, IL

Home | Current Version | Previous Version | Text Only | Print | Product List | Glossary Off
Versions: 1 2 3 4 5 6 7 8 9 10 11 12 13 14 15 16 17 18 19 20 21 22 23 24 25 26 27 28 29 30 31 32 33 34 35 36 37 38 39 40 41 42 43 44 45 46 47 48 49 50

000
NZUS59 KLOT 200403
HRRLOT

CHICAGO AREA WEATHER ROUNDUP
NATIONAL WEATHER SERVICE CHICAGO/ROMEOVILLE IL
1100 PM CDT TUE SEP 19 2017

NOTE: "FAIR" INDICATES FEW OR NO CLOUDS BELOW 12,000 FEET WITH NO
SIGNIFICANT WEATHER AND/OR OBSTRUCTIONS TO VISIBILITY.

* THESE STATIONS ARE NOT UNDER NWS QUALITY CONTROL. THEY ALSO MAY NOT
  REPORT WEATHER SUCH AS PRECIPITATION OR FOG.

ILZ005-006-012>014-019>023-200500-
NORTHEAST ILLINOIS

CITY           SKY/WX    TMP DP  RH WIND       PRES   REMARKS
OHARE          CLEAR     68  62  81 E6        29.93S
MIDWAY         CLEAR     69  64  84 E6        29.93S
AURORA         CLEAR     65  62  90 E7        29.93R
LANSING*       CLEAR     65  64  97 E3        29.94S
JOLIET*        CLEAR     67  65  92 E5        29.93S
WAUKEGAN       FOG       61  61 100 CALM      29.93R VSB 1/2
DUPAGE AIRPORT CLEAR     64  63  96 E6        29.93R FOG
WHEELING       CLEAR     65  65 100 CALM      29.94S
MORRIS*        CLEAR     64  63  94 E5        29.91S FOG
LEWIS AIRPORT* CLEAR     64  63  94 E7        29.93S FOG
NORTHERLY ISL    N/A     67  64  90 E2          N/A
$$

WIZ051-052-058>065-066-070>072-200500-
SOUTHEAST WISCONSIN

CITY           SKY/WX    TMP DP  RH WIND       PRES   REMARKS
MILWAUKEE      PTCLDY    63  63 100 CALM      29.94R FOG
KENOSHA*       FOG       61  60  97 CALM      29.94S VSB<1/4
RACINE*        FOG       61  61 100 N3        29.96R VSB 1/4
$$

INZ001>003-010>013-019-020-200500-
NORTHWEST INDIANA

CITY           SKY/WX    TMP DP  RH WIND       PRES   REMARKS
GARY*          CLEAR     62  60  94 CALM      29.94S FOG
MICHIGAN CITY* NOT AVBL
RENSSELAER*    NOT AVBL
VALPARAISO     CLEAR     63  62  97 CALM      29.95R FOG
$$

LMZ740>746-200500-
SOUTHERN LAKE MICHIGAN

STATION/POSITION TIME  SKY/WX   TEMP WIND        PRES    VSBY
                                AIR  DIR/SP/G
                 (UTC)          (F)  (DEG/KT/KT) (MB)    (MI)
HARRISON CRIB    0340            69   90/  7/  8   N/A
BURNHAM HARBOR   NOT AVBL
CALUMET HARBOR   0330            68   50/  2/  4 1013.1R
BURNS HARBOR     0340            67   80/  6/  7 1014.2S
MICHIGAN CITY    0340            65   90/  2/  3   N/A
$$

ABBREVIATIONS USED IN REMARKS
   TC - TEMPERATURE IN CELSIUS
  WCI - WIND CHILL INDEX
   HX - HEAT INDEX
  VSB - VISIBILITY
$$




USA.gov is the U.S. government's official web portal to all federal, state and local government web resources and services.